Weather History for PHNL - June, 2013

Change the Weather History Date:

Sunday, June 16, 2013

  Actual Average Record
Temperature  
Mean Temperature 79 °F 80 °F  
Max Temperature 85 °F 87 °F 89 °F (1986)
Min Temperature 72 °F 74 °F 65 °F (1971)
Degree Days  
Heating Degree Days 0 0  
Month to date heating degree days 0 0  
Since 1 June heating degree days 0 0  
Since 1 July heating degree days 0 0  
Cooling Degree Days 14 15  
Month to date cooling degree days 228 237  
Year to date cooling degree days 1688 1739  
Since 1 June cooling degree days 228 237  
Growing Degree Days 28 (Base 50)    
Moisture  
Dew Point 64 °F    
Average Humidity 66    
Maximum Humidity 84    
Minimum Humidity 48    
Precipitation  
Precipitation 0.00 in 0.01 in 0.39 in (1971)
Month to date precipitation 0.02 0.15  
Year to date precipitation 8.48 7.72  
Snow  
Snow 0.00 in - - ()
Month to date snowfall 0.0  
Since 1 June snowfall 0.0  
Since 1 July snowfall 0.0  
Snow Depth 0.00 in    
Sea Level Pressure  
Sea Level Pressure 29.99 in    
Wind  
Wind Speed 12 mph (ENE)    
Max Wind Speed 21 mph    
Max Gust Speed 28 mph    
Visibility 10 miles    
Events      
T = Trace of Precipitation, MM = Missing Value Source: NWS Daily Summary

Daily Weather History Graph

Daily Weather History Graph

Search for Another Location

Airport or City:

Trip Planner

Search our weather history database for the weather conditions in past years. The results will help you decide how hot, cold, wet, or windy it might be!

Date:

Astronomy

Jun. 16, 2013 Rise Set
Actual Time 5:49 AM HST 7:15 PM HST
Civil Twilight 5:24 AM HST 7:40 PM HST
Nautical Twilight 4:55 AM HST 8:09 PM HST
Astronomical Twilight 4:24 AM HST 8:40 PM HST
Moon 12:44 PM HST (6/16) 12:14 AM HST (6/16)
Length of Visible Light 14h 15m
Length of Day
13h 25m
First Quarter, 52% of the Moon is Illuminated
Jun 16
First Quarter
Jun 23
Full
Jun 29
Last Quarter
Jul 7
New
Jul 15
First Quarter

Hourly Weather History & Observations

Time (HST) Temp. Heat Index Dew Point Humidity Pressure Visibility Wind Dir Wind Speed Gust Speed Precip Events Conditions
12:53 AM 73.0 °F - 64.9 °F 76% 29.98 in 10.0 mi ENE 6.9 mph - N/A   Scattered Clouds
1:53 AM 73.0 °F - 64.9 °F 76% 29.97 in 10.0 mi ENE 9.2 mph - N/A   Scattered Clouds
2:53 AM 73.0 °F - 64.9 °F 76% 29.95 in 10.0 mi ENE 11.5 mph - N/A   Scattered Clouds
3:53 AM 73.0 °F - 64.0 °F 73% 29.95 in 10.0 mi ENE 8.1 mph - N/A   Scattered Clouds
4:53 AM 72.0 °F - 64.9 °F 78% 29.96 in 10.0 mi ENE 10.4 mph - N/A   Scattered Clouds
5:53 AM 72.0 °F - 66.0 °F 81% 29.97 in 10.0 mi ENE 4.6 mph - N/A   Scattered Clouds
6:53 AM 73.9 °F - 64.9 °F 73% 29.99 in 10.0 mi ENE 11.5 mph - N/A   Scattered Clouds
7:53 AM 77.0 °F - 63.0 °F 62% 30.01 in 10.0 mi ENE 13.8 mph 20.7 mph N/A   Scattered Clouds
8:53 AM 79.0 °F - 63.0 °F 58% 30.01 in 10.0 mi ENE 15.0 mph - N/A   Scattered Clouds
9:53 AM 81.0 °F 82.2 °F 63.0 °F 54% 30.00 in 10.0 mi ENE 16.1 mph - N/A   Scattered Clouds
10:53 AM 82.0 °F 83.0 °F 62.1 °F 51% 30.01 in 10.0 mi ENE 12.7 mph - N/A   Scattered Clouds
11:53 AM 84.0 °F 84.9 °F 63.0 °F 49% 30.00 in 10.0 mi NE 16.1 mph 25.3 mph N/A   Scattered Clouds
12:53 PM 84.0 °F 84.5 °F 62.1 °F 47% 29.99 in 10.0 mi NE 13.8 mph 24.2 mph N/A   Scattered Clouds
1:53 PM 82.9 °F 83.7 °F 62.1 °F 49% 29.98 in 10.0 mi ENE 18.4 mph 25.3 mph N/A   Scattered Clouds
2:53 PM 84.0 °F 84.9 °F 63.0 °F 49% 29.97 in 10.0 mi East 15.0 mph 23.0 mph N/A   Scattered Clouds
3:53 PM 82.9 °F 84.0 °F 63.0 °F 51% 29.97 in 10.0 mi ENE 18.4 mph 25.3 mph N/A   Scattered Clouds
4:53 PM 81.0 °F 82.5 °F 64.0 °F 56% 29.96 in 10.0 mi NE 18.4 mph 27.6 mph N/A   Scattered Clouds
5:53 PM 80.1 °F 81.7 °F 64.0 °F 58% 29.97 in 10.0 mi ENE 18.4 mph 24.2 mph N/A   Scattered Clouds
6:53 PM 77.0 °F - 64.0 °F 64% 29.99 in 10.0 mi NE 16.1 mph 23.0 mph N/A   Partly Cloudy
7:53 PM 75.9 °F - 64.0 °F 67% 30.00 in 10.0 mi NE 17.3 mph 25.3 mph N/A   Partly Cloudy
8:53 PM 75.9 °F - 64.0 °F 67% 30.02 in 10.0 mi ENE 12.7 mph - N/A   Partly Cloudy
9:53 PM 75.9 °F - 64.9 °F 69% 30.03 in 10.0 mi ENE 15.0 mph 23.0 mph N/A   Scattered Clouds
10:53 PM 75.0 °F - 64.9 °F 71% 30.04 in 10.0 mi ENE 12.7 mph - N/A   Scattered Clouds
11:53 PM 75.0 °F - 64.0 °F 69% 30.03 in 10.0 mi ENE 10.4 mph - 0.00 in   Scattered Clouds